Wind_Speed
23 23 22 22 22 22 21 21 21 19 19 19 20 20 20 19 19 20 20 21 21 21 22 23 24 25 25 25 24 21 17 16 17 16 13 12 14 16 17 19 20 23 26 28 30
21 21 21 21 21 20 19 18 17 17 17 16 16 18 20 20 20 21 19 19 19 19 21 22 24 25 24 26 27 27 26 27 26 18 14 14 11 10 12 14 17 20 22 24 26
17 17 16 16 16 16 15 13 11 11 10 12 14 15 18 20 18 21 21 19 18 19 21 22 22 22 23 24 25 26 28 30 29 18 14 13 13 15 16 18 20 22 24 25 27
13 14 14 14 14 14 14 14 13 12 11 9 10 14 16 19 17 19 20 20 20 19 20 22 21 21 20 21 22 23 25 29 30 15 14 14 12 7 6 8 9 8 10 13 17
12 12 13 13 14 14 15 15 15 15 14 14 14 15 18 19 19 19 21 20 20 20 20 19 20 21 19 20 22 24 25 26 29 18 12 12 15 13 12 9 5 8 10 11 15
15 14 14 15 17 19 20 21 19 18 17 17 15 16 17 19 19 20 21 21 21 21 20 20 18 20 20 20 21 22 23 25 27 22 14 10 10 11 13 13 13 13 14 16 22
15 16 16 16 15 17 21 22 23 24 22 20 18 16 17 18 19 20 21 21 22 22 21 21 20 19 21 22 23 23 23 23 24 25 16 15 11 13 18 16 17 19 21 25 29
15 13 15 15 15 18 20 22 24 24 23 19 19 18 18 19 21 21 22 22 22 22 22 22 22 21 22 22 23 24 24 24 25 25 24 20 17 19 18 16 19 22 27 34 37
15 14 14 14 15 16 18 22 23 23 22 19 18 19 19 20 23 25 24 23 22 23 23 23 23 22 23 24 23 24 25 25 25 25 24 25 25 23 22 24 25 28 26 24 31
13 15 15 14 15 14 17 21 22 24 24 22 20 20 20 22 24 26 25 25 23 23 23 24 24 24 24 25 25 25 25 25 25 25 25 24 23 23 24 29 33 29 23 20 22
11 14 16 16 16 16 19 21 24 25 26 23 20 19 19 23 25 27 26 26 25 24 24 24 25 25 25 26 26 26 26 27 28 27 25 26 29 30 26 26 19 21 20 20 20
10 11 13 14 13 13 17 23 24 24 27 24 21 19 19 20 24 27 29 27 25 25 27 26 26 27 26 25 26 26 26 26 28 30 29 27 27 27 26 24 22 21 22 23 21
9 11 13 14 15 17 20 21 22 24 26 27 24 20 18 19 23 27 30 29 25 24 26 27 28 28 28 28 28 29 28 26 27 27 30 31 28 25 22 21 22 21 21 24 26
11 11 13 16 17 19 21 21 20 21 23 25 26 22 19 23 26 29 28 27 24 24 26 28 31 31 33 32 31 34 34 31 29 29 27 29 30 25 25 21 22 19 23 23 26
13 15 16 15 14 16 17 17 19 19 21 22 24 24 25 27 29 29 27 26 24 25 27 31 33 33 34 33 33 36 38 34 32 30 28 28 31 27 30 28 25 21 21 24 23
13 14 16 18 18 19 19 20 20 21 22 22 25 27 29 29 29 28 25 24 25 26 28 30 32 33 33 34 34 39 39 36 34 30 29 31 32 27 29 28 27 24 17 20 22
15 17 18 19 20 21 19 20 21 21 22 22 24 26 28 29 28 26 23 24 26 27 29 30 33 32 33 34 34 37 42 39 38 36 30 31 32 29 28 26 26 24 20 19 18
18 20 21 21 20 21 21 21 21 21 22 21 24 26 27 29 28 26 24 28 31 29 26 29 32 32 33 35 35 35 40 38 37 38 31 29 31 29 28 29 26 25 27 26 23
22 23 24 24 24 23 22 22 22 23 25 23 25 26 26 29 29 28 29 32 33 28 28 30 32 32 32 35 34 36 37 37 37 37 38 33 30 30 27 25 27 26 25 30 32
25 27 27 26 26 25 25 24 25 26 26 24 26 27 28 30 30 30 32 32 30 30 31 32 31 33 33 33 32 36 36 36 35 37 39 36 28 31 28 28 28 26 25 26 29
29 29 28 28 27 26 25 25 26 26 25 25 28 30 30 30 32 32 31 33 33 33 34 35 34 33 33 33 33 33 34 34 36 38 37 40 30 32 31 29 28 30 31 30 28
31 30 29 29 29 28 28 28 28 28 26 27 31 31 32 33 33 34 33 35 35 33 34 34 35 33 33 35 35 31 31 34 37 40 37 39 33 33 33 32 29 30 31 29 29
31 31 32 31 30 30 30 30 29 28 29 31 32 32 34 35 35 35 36 35 37 35 34 35 34 35 35 36 36 32 31 33 36 38 38 39 35 35 37 33 33 32 31 31 30
31 31 31 31 32 32 32 31 30 29 31 31 32 34 36 37 36 36 36 35 36 35 36 36 35 39 38 36 37 33 31 34 35 38 44 34 40 36 40 40 36 34 32 31 31
33 33 34 34 34 34 34 33 34 34 34 34 36 38 39 40 39 36 36 36 35 34 36 37 37 40 41 38 37 35 33 33 35 40 46 38 40 43 44 45 41 36 34 35 34
37 37 37 36 37 37 36 36 36 38 40 41 41 40 41 42 42 41 40 37 35 35 38 39 41 43 43 41 41 39 35 35 40 42 42 40 42 48 46 47 43 40 38 34 34
40 40 38 39 39 39 38 40 41 43 44 45 44 43 43 43 44 42 40 38 38 39 42 42 43 44 44 39 44 44 40 41 42 42 44 47 50 48 44 45 44 40 38 36 34
Wind_Direction
70 69 68 67 68 65 63 60 55 51 50 50 47 41 34 29 24 18 13 11 9 3 359 357 356 1 8 10 11 13 10 358 340 329 323 307 292 283 276 274 275 274 272 269 267
63 63 60 61 59 57 55 56 59 54 50 40 39 29 24 25 20 17 15 16 12 5 359 353 350 353 359 4 2 1 1 1 356 342 327 317 310 308 299 289 283 279 274 275 273
59 58 56 54 51 48 47 43 42 47 47 30 18 18 13 9 9 11 9 9 10 6 3 356 348 347 350 357 356 356 356 1 3 353 352 326 299 294 293 288 283 284 285 279 272
47 44 39 35 33 28 23 17 11 6 1 356 354 353 354 358 355 356 355 357 2 0 358 357 350 345 345 347 348 347 351 358 2 9 32 24 20 353 343 338 327 319 305 304 300
54 46 40 35 33 30 23 13 7 354 349 346 342 338 342 346 345 347 345 345 348 350 353 352 350 347 343 341 343 342 343 349 357 358 3 4 359 350 339 339 309 300 292 297 303
67 65 53 49 50 47 40 31 25 19 13 3 355 350 347 345 348 346 345 346 343 342 343 346 344 346 347 343 337 334 338 340 347 351 341 341 348 336 331 311 299 288 287 300 306
67 67 59 51 48 41 35 34 31 29 24 19 15 9 4 357 355 353 353 350 352 348 343 340 341 342 341 344 340 334 334 334 332 340 326 323 305 303 313 307 314 306 304 299 290
58 59 53 48 44 36 37 31 27 27 23 22 19 15 10 2 359 358 354 354 354 352 350 346 343 344 340 335 339 341 333 330 330 329 330 312 301 296 287 283 290 301 308 299 296
52 48 45 38 34 31 33 27 23 25 22 19 18 14 11 5 1 359 358 354 353 352 353 351 346 345 341 336 332 331 334 334 326 327 323 323 307 295 286 285 286 290 299 308 306
44 42 43 37 28 33 27 23 20 21 17 14 8 7 9 1 357 353 350 353 351 351 353 352 349 346 347 342 334 328 323 323 328 329 320 316 311 315 316 295 285 294 285 301 310
45 37 29 32 36 36 28 20 17 16 12 8 2 357 351 355 355 355 350 347 346 348 348 349 347 347 346 344 339 333 325 319 318 319 326 320 315 314 322 320 318 300 298 313 320
39 31 25 20 16 13 7 6 5 4 6 2 355 347 349 350 354 355 353 345 343 344 349 349 348 347 345 345 342 339 333 327 320 317 317 318 319 319 310 310 315 309 311 314 320
27 16 13 11 10 8 1 358 1 2 6 4 354 346 341 347 347 347 346 344 340 342 346 347 347 345 348 347 344 347 343 339 334 328 320 318 317 314 308 308 307 309 308 309 316
27 19 12 9 10 4 357 357 357 353 357 1 2 355 346 342 342 343 343 344 342 342 344 347 349 347 347 344 349 352 349 347 346 342 335 318 316 319 309 303 304 303 306 310 314
3 2 2 3 358 358 360 353 356 358 356 354 355 351 346 339 337 341 345 347 345 345 345 345 346 346 343 345 349 352 347 348 346 347 341 328 323 326 316 307 293 301 298 307 312
338 343 343 346 344 346 347 347 349 353 353 351 351 350 346 344 342 339 341 343 343 342 339 339 342 344 343 345 350 349 345 343 343 352 351 343 335 339 328 324 309 290 282 295 304
320 327 329 330 334 335 337 340 343 348 348 348 348 345 344 343 340 339 338 340 340 340 336 336 339 344 344 345 349 346 342 339 342 349 353 347 339 342 340 331 323 297 284 279 286
309 315 318 321 326 329 330 330 333 333 338 334 341 338 336 337 336 334 335 336 337 336 336 339 340 344 345 345 345 344 340 339 340 343 348 351 346 345 340 333 326 311 289 285 283
300 308 314 316 321 324 325 324 326 328 331 328 334 333 331 333 331 329 328 331 331 333 336 340 339 341 344 343 342 342 339 335 337 341 341 356 348 340 339 334 329 328 315 300 293
296 304 308 312 315 319 320 320 320 323 327 323 330 328 327 327 330 327 329 329 331 331 331 337 338 338 340 340 341 339 335 332 335 339 339 344 346 342 339 335 328 324 317 308 301
294 298 302 305 307 311 315 316 317 319 322 318 324 324 323 320 325 323 328 327 326 327 329 333 335 336 336 337 337 339 336 332 332 336 336 336 347 339 336 337 330 326 321 316 305
290 294 298 302 305 310 313 314 314 315 315 315 319 321 317 317 316 320 320 325 325 319 322 330 331 334 332 331 333 339 336 327 326 329 336 334 338 331 329 330 327 325 321 317 311
293 297 300 303 304 306 308 308 310 309 310 313 316 316 314 313 313 312 315 317 322 318 318 324 329 327 329 324 330 333 333 323 319 322 330 332 331 324 326 325 323 321 320 321 318
293 296 298 300 301 303 305 306 305 306 309 311 311 311 309 309 309 310 310 314 317 313 315 320 323 325 328 322 321 327 327 324 316 318 316 327 322 317 326 324 320 315 312 312 311
289 291 293 296 298 301 303 304 301 303 307 309 309 308 306 305 306 305 305 309 312 310 312 315 316 317 329 319 315 321 323 318 315 314 312 316 320 317 320 318 318 316 313 307 302
288 290 293 295 297 299 299 298 297 300 302 307 308 306 304 302 302 304 302 302 307 313 315 314 312 313 322 316 312 317 322 317 316 316 313 312 316 316 315 313 313 309 312 310 306
286 289 291 294 296 297 296 294 295 299 302 305 305 304 301 301 299 300 300 301 304 308 309 313 312 312 317 314 315 315 316 316 315 314 309 308 310 311 311 310 310 309 309 309 303
Height
5852 5851 5850 5850 5849 5848 5847 5845 5844 5843 5841 5840 5838 5837 5835 5832 5830 5828 5825 5823 5820 5817 5813 5810 5807 5804 5800 5797 5793 5791 5790 5788 5785 5782 5780 5779 5777 5777 5777 5777 5777 5778 5779 5780 5781
5854 5853 5853 5852 5851 5850 5849 5847 5846 5845 5843 5841 5840 5838 5836 5834 5831 5829 5826 5823 5821 5817 5814 5810 5806 5804 5801 5797 5793 5790 5788 5784 5780 5777 5776 5774 5774 5773 5774 5773 5773 5773 5773 5774 5775
5857 5856 5855 5854 5854 5852 5851 5850 5848 5846 5844 5842 5841 5839 5836 5834 5832 5829 5826 5823 5820 5817 5814 5810 5807 5803 5800 5797 5793 5789 5786 5782 5778 5773 5770 5769 5769 5769 5769 5769 5769 5768 5767 5767 5767
5859 5858 5857 5856 5855 5854 5853 5851 5849 5847 5845 5843 5841 5839 5837 5834 5832 5828 5826 5822 5819 5817 5813 5810 5806 5802 5799 5795 5792 5788 5784 5781 5777 5773 5769 5768 5766 5765 5764 5765 5765 5764 5764 5763 5761
5861 5860 5859 5857 5856 5855 5853 5851 5849 5847 5845 5843 5841 5839 5837 5834 5831 5828 5825 5822 5819 5815 5812 5809 5805 5801 5798 5795 5792 5787 5782 5779 5776 5773 5770 5768 5767 5765 5764 5763 5762 5762 5761 5760 5759
5862 5862 5861 5860 5858 5856 5855 5853 5850 5847 5844 5842 5841 5839 5837 5834 5830 5827 5824 5821 5818 5814 5811 5808 5804 5801 5797 5794 5790 5785 5782 5778 5775 5772 5769 5766 5765 5764 5763 5761 5760 5759 5757 5755 5753
5865 5863 5862 5861 5860 5858 5856 5854 5852 5848 5845 5843 5840 5838 5837 5835 5830 5828 5824 5820 5816 5813 5810 5807 5803 5800 5797 5794 5789 5786 5783 5778 5774 5770 5768 5766 5764 5762 5759 5757 5755 5753 5751 5748 5746
5866 5865 5863 5862 5861 5859 5857 5855 5852 5849 5847 5844 5841 5839 5837 5834 5831 5828 5823 5820 5816 5812 5808 5805 5802 5798 5795 5791 5789 5785 5782 5778 5774 5770 5767 5765 5762 5759 5756 5754 5752 5750 5748 5743 5739
5868 5867 5865 5864 5862 5861 5859 5856 5854 5851 5848 5845 5843 5840 5837 5834 5831 5827 5823 5819 5815 5812 5808 5804 5800 5796 5793 5789 5786 5782 5779 5776 5773 5769 5766 5762 5759 5756 5753 5750 5747 5744 5742 5737 5730
5869 5868 5867 5865 5863 5861 5859 5857 5855 5851 5848 5846 5843 5842 5838 5834 5830 5826 5823 5819 5814 5811 5807 5803 5798 5794 5790 5786 5782 5778 5776 5772 5769 5766 5762 5759 5755 5751 5747 5744 5740 5738 5735 5731 5725
5870 5869 5867 5865 5863 5861 5860 5858 5856 5853 5849 5846 5843 5840 5837 5833 5830 5825 5821 5817 5813 5809 5805 5801 5797 5792 5787 5783 5779 5775 5771 5767 5763 5761 5758 5753 5750 5747 5742 5739 5734 5731 5728 5724 5719
5870 5869 5867 5866 5864 5862 5861 5857 5855 5853 5849 5845 5841 5838 5835 5831 5828 5824 5820 5817 5812 5808 5804 5800 5795 5790 5785 5780 5775 5771 5766 5763 5760 5755 5751 5749 5744 5742 5738 5734 5731 5727 5723 5719 5715
5870 5869 5868 5866 5864 5861 5859 5857 5854 5851 5849 5844 5840 5836 5833 5830 5826 5822 5818 5814 5810 5806 5802 5797 5793 5788 5783 5777 5772 5767 5763 5758 5755 5751 5746 5742 5740 5734 5732 5729 5725 5723 5719 5715 5709
5870 5869 5868 5866 5864 5861 5858 5855 5852 5850 5847 5844 5839 5836 5832 5829 5825 5820 5816 5812 5808 5804 5799 5795 5790 5785 5780 5775 5770 5764 5759 5755 5751 5747 5743 5736 5734 5731 5726 5723 5720 5717 5715 5711 5706
5870 5868 5867 5865 5863 5861 5858 5854 5851 5848 5845 5842 5838 5834 5830 5828 5824 5818 5813 5808 5804 5801 5798 5794 5788 5783 5777 5772 5766 5762 5755 5751 5747 5743 5739 5733 5727 5725 5720 5716 5713 5711 5710 5707 5702
5868 5866 5865 5864 5862 5859 5856 5852 5849 5847 5842 5840 5836 5832 5828 5823 5819 5815 5811 5807 5802 5798 5794 5790 5785 5780 5773 5768 5763 5758 5752 5748 5743 5739 5734 5729 5723 5721 5715 5711 5707 5705 5703 5702 5699
5867 5865 5864 5861 5859 5856 5853 5851 5849 5845 5843 5839 5835 5830 5825 5820 5816 5812 5807 5803 5799 5796 5789 5786 5781 5776 5770 5764 5760 5755 5749 5744 5739 5734 5731 5725 5719 5715 5710 5705 5701 5699 5697 5695 5694
5864 5862 5861 5859 5856 5854 5851 5849 5846 5843 5838 5835 5832 5827 5823 5818 5813 5809 5805 5801 5796 5792 5787 5782 5777 5773 5767 5761 5756 5751 5745 5740 5734 5730 5728 5723 5716 5711 5705 5700 5697 5694 5692 5690 5689
5861 5859 5858 5856 5853 5851 5849 5846 5843 5840 5836 5833 5829 5824 5820 5815 5810 5805 5801 5797 5793 5788 5784 5779 5773 5768 5763 5757 5753 5747 5742 5737 5732 5728 5721 5720 5714 5708 5702 5697 5692 5689 5687 5685 5684
5856 5855 5853 5851 5848 5846 5844 5842 5839 5835 5832 5829 5825 5821 5816 5811 5807 5802 5797 5793 5789 5785 5780 5776 5771 5765 5760 5754 5749 5744 5739 5732 5729 5724 5717 5714 5709 5703 5699 5694 5689 5684 5681 5679 5677
5851 5849 5848 5845 5843 5841 5839 5836 5833 5830 5828 5825 5821 5817 5813 5808 5803 5798 5794 5790 5785 5781 5776 5772 5767 5762 5755 5750 5746 5741 5735 5729 5724 5720 5715 5707 5707 5699 5695 5691 5686 5681 5676 5672 5670
5845 5844 5842 5841 5840 5837 5834 5832 5830 5826 5823 5819 5816 5812 5807 5803 5799 5794 5789 5784 5780 5775 5771 5767 5763 5758 5753 5746 5741 5737 5731 5725 5719 5715 5712 5706 5704 5696 5692 5688 5683 5678 5673 5669 5664
5839 5838 5837 5835 5833 5831 5828 5825 5823 5820 5816 5813 5809 5805 5801 5797 5793 5788 5783 5779 5775 5770 5765 5762 5757 5751 5747 5742 5736 5732 5728 5722 5716 5711 5707 5701 5698 5690 5686 5682 5677 5672 5667 5663 5658
5833 5832 5831 5828 5826 5824 5821 5819 5815 5813 5809 5806 5802 5798 5794 5790 5786 5781 5777 5773 5768 5764 5760 5756 5753 5747 5742 5736 5731 5728 5723 5717 5711 5707 5699 5698 5691 5684 5679 5675 5670 5666 5661 5657 5653
5824 5823 5822 5821 5819 5817 5815 5812 5808 5806 5802 5798 5795 5791 5787 5783 5779 5775 5771 5766 5761 5757 5754 5750 5747 5742 5739 5730 5725 5722 5718 5712 5706 5701 5692 5691 5684 5678 5673 5668 5663 5659 5654 5651 5646
5816 5816 5814 5813 5811 5809 5806 5803 5800 5797 5794 5791 5787 5782 5778 5773 5770 5766 5762 5758 5755 5750 5746 5743 5738 5734 5732 5725 5719 5717 5711 5706 5698 5692 5686 5679 5677 5669 5665 5660 5656 5651 5647 5642 5639
5806 5806 5805 5805 5803 5800 5798 5794 5791 5788 5786 5781 5777 5773 5768 5764 5760 5757 5753 5749 5745 5741 5737 5734 5728 5724 5722 5717 5711 5708 5704 5697 5691 5684 5678 5672 5667 5661 5655 5651 5647 5642 5637 5633 5630